User: anonymous   Login
Location: Newark
(35.8967°N, 14.4625°E)
Time: 17:44:36
(UTC+00:00)
Language:

Envisat - Orbit

View from above orbital plane
View from above orbital plane
View from above satellite
View from above satellite

Ground track
Ground track

The orbit data is extracted from the following two-line orbital elements,

1 27386U 02009A   19324.51410119  .00000005  00000-0  15143-4 0  9991
2 27386  98.1427 337.5673 0001325  94.9789  78.7512 14.37963300928443
Epoch (UTC): 20 November 2019 12:20:18
Eccentricity: 0.0001325
inclination: 98.1427°
perigee height: 764 km
apogee height: 766 km
right ascension of ascending node: 337.5673°
argument of perigee: 94.9789°
revolutions per day: 14.37963300
mean anomaly at epoch: 78.7512°
orbit number at epoch: 92844

The dashed part of the orbit path shows where the satellite is in the earth's shadow,  

DLR